[[{"header":{"parameterUnit":"m.s-1","parameterCategory":1,"la1":30.2991,"la2":30.254,"lo1":-89.0895,"lo2":-89.0444,"dy":0.0017,"dx":0.0017,"nx":28,"ny":28,"refTime":"2024-03-18T09:00:00:Z","depth":0,"parameterNumber":2,"parameterNumberName":"U-component_of_WINDS"},"data":[0,0,0,0,0,0,0,0,0,0,0,0,0,0,0,0,0,0,0,0,0,0,0,0,0,0,0,0,0,0,0,0,0,0,0,0,0,0,0,0,0,0,0,0,0,0,0,0,0,0,0,0,0,0,0,0,0,0,2.7834,2.7835,0,2.7893,2.7894,2.7895,2.7879,2.7878,2.7877,2.7876,2.7934,2.7936,2.7939,0,0,0,0,0,0,0,0,0,0,0,0,0,2.7703,2.7706,2.7834,2.7835,2.7836,2.7893,2.7894,2.7895,2.788,2.7878,2.7877,2.7876,2.7933,2.7936,2.7939,0,0,0,0,0,0,0,0,0,0,0,0,0,2.7761,2.7707,2.7834,2.7835,2.7836,2.7893,2.7894,2.7895,2.788,2.7878,2.7876,2.7875,2.7932,2.7936,2.794,2.7999,0,0,2.7952,2.7953,0,0,0,0,0,0,0,0,2.7758,2.7766,2.7834,2.7835,2.7836,2.7877,2.7869,2.793,2.788,2.7863,2.7876,2.7874,2.7916,2.7921,2.7936,2.8002,2.8004,2.7952,2.7954,2.7956,2.7957,0,0,0,0,0,0,0,2.7754,2.7763,2.7858,2.7835,2.7836,2.7831,2.7837,2.7881,2.7899,2.7864,2.7864,2.7871,2.7916,2.7933,2.7938,2.8005,2.7952,2.7955,2.7958,2.7959,2.8118,2.8119,0,0,0,0,0,0,2.775,2.776,2.7856,2.7859,2.7792,2.7835,2.7842,2.7866,2.7898,2.7902,2.7872,2.787,2.7927,2.7933,2.7939,2.8008,2.7956,2.796,2.7962,2.8116,2.8118,2.812,0,0,0,0,0,0,2.7747,2.7758,2.7853,2.7809,2.7821,2.7839,2.7866,2.7868,2.7884,2.7904,2.7907,2.7886,2.7926,2.7934,2.7984,2.801,2.7962,2.7965,2.8114,2.8117,2.8119,2.8147,0,0,0,0,0,0,2.7743,2.7757,2.7781,2.781,2.7824,2.7898,2.7868,2.787,2.7891,2.7889,2.7917,2.792,2.7925,2.7978,2.7987,2.8014,2.7968,2.8111,2.8115,2.8118,2.8144,2.815,2.8156,0,0,0,0,0,2.7739,2.7787,2.7783,2.7794,2.7854,2.7899,2.7907,2.7912,2.7893,2.7916,2.7929,2.792,2.8006,2.7983,2.7994,2.8022,2.811,2.8114,2.8118,2.8141,2.8149,2.8156,0,0,0,0,0,0,2.7761,2.7791,2.7786,2.7846,2.787,2.7897,2.7926,2.7921,2.795,2.7946,2.795,2.7957,2.8007,2.802,2.7994,2.8079,2.8055,2.8061,2.8069,2.8076,2.8082,2.8077,2.7972,0,0,0,0,0,2.7772,2.7808,2.7832,2.7882,2.7895,2.7908,2.7928,2.793,2.7955,2.7965,2.7981,2.8005,2.8037,2.8058,2.8089,2.8146,2.815,2.8171,2.8177,2.8182,2.8187,2.8214,2.8223,2.8134,2.8134,2.8134,0,0,2.7797,2.7818,2.784,2.7887,2.7906,2.7941,2.7917,2.7956,2.7981,2.797,2.8017,2.803,2.8057,2.8109,2.8134,2.8122,2.8212,2.8187,2.8191,2.8193,2.8219,2.8228,2.8235,2.8137,2.8136,2.8136,0,0,2.7859,2.788,2.7922,2.7941,2.797,2.7979,2.7989,2.8016,2.8024,2.8072,2.8064,2.8093,2.8149,2.8167,2.8184,2.825,2.8241,2.826,2.8291,2.8318,2.8325,2.8332,2.8352,2.836,2.8266,2.8266,2.8266,0,2.7885,2.7939,2.7944,2.7983,2.8002,2.7995,2.8036,2.8054,2.8092,2.8104,2.8091,2.8159,2.8177,2.8232,2.8248,2.8263,2.8272,2.8256,2.8324,2.833,2.8336,2.8356,2.8364,2.8268,2.8267,2.8267,2.8267,0,2.7968,2.8005,2.8035,2.8071,2.8094,2.8134,2.8144,2.8167,2.8166,2.8175,2.8222,2.8242,2.8276,2.8289,2.829,2.8344,2.8335,2.8323,2.8298,2.8346,2.8364,2.8372,2.827,2.827,2.8269,2.8269,0,0,2.8045,2.8083,2.8093,2.8108,2.8139,2.8166,2.8205,2.8238,2.8255,2.8281,2.8311,2.8358,2.8347,2.8365,2.8367,2.8391,2.8438,2.8376,2.8376,2.8384,2.8495,2.8502,2.8511,2.8434,2.8435,2.8436,2.8492,0,2.8107,2.8175,2.818,2.8241,2.8273,2.8266,2.8299,2.832,2.8329,2.8356,2.8367,2.8398,2.8382,2.8393,2.8417,2.8428,2.846,2.8424,2.8459,2.846,2.845,2.8521,2.8529,2.8581,2.85,2.8501,2.8502,0,2.8189,2.8216,2.828,2.8303,2.8317,2.8346,2.8375,2.8403,2.8426,2.843,2.845,2.8448,2.8485,2.8461,2.851,2.8485,2.85,2.8507,2.8509,2.851,2.8482,2.8521,2.8598,2.8604,2.8514,2.8513,2.8512,0,2.8234,2.8287,2.8331,2.8345,2.8374,2.8394,2.8407,2.8429,2.8447,2.8473,2.8484,2.8513,2.8529,2.855,2.8555,2.8538,2.8603,2.858,2.8606,2.8605,2.8618,2.8617,2.8695,2.8632,2.8632,2.8632,2.8632,0,2.8301,2.8339,2.8351,2.8378,2.842,2.8425,2.8466,2.8478,2.8496,2.8524,2.852,2.8545,2.8552,2.8578,2.8582,2.862,2.8628,2.8631,2.8631,2.8629,2.8628,2.8637,2.8632,2.8634,2.8634,2.8633,2.8633,0,2.8358,2.8368,2.8415,2.8439,2.8445,2.8475,2.8494,2.8519,2.8527,2.8562,2.857,2.8583,2.8613,2.8621,2.8657,2.866,2.8704,2.8702,2.8696,2.8695,2.8719,2.8715,2.8803,2.8813,2.8747,2.8748,2.8748,0,2.8399,2.8428,2.8454,2.8472,2.8486,2.8516,2.8534,2.854,2.8559,2.8586,2.8607,2.8637,2.8661,2.8709,2.872,2.8747,2.8744,2.8773,2.8748,2.8745,2.8741,2.8738,2.8739,2.8777,2.8778,2.8778,2.8779,0,2.8469,2.8472,2.8499,2.8528,2.855,2.8573,2.8594,2.8609,2.8617,2.8639,2.867,2.8688,2.8725,2.8753,2.878,2.8791,2.8785,2.8787,2.8794,2.8791,2.8785,2.8785,2.8705,2.8784,2.8784,2.8783,2.8783,2.8783,2.8517,2.8541,2.8562,2.8592,2.8609,2.8629,2.8652,2.8663,2.8689,2.8719,2.8721,2.8754,2.8773,2.8809,2.8822,2.8846,2.8837,2.8848,2.885,2.8852,2.8852,2.8783,2.8851,2.8851,2.8851,2.8851,2.8851,0,2.8584,2.8597,2.8624,2.8654,2.8677,2.8671,2.8694,2.8712,2.8741,2.8761,2.8784,2.8818,2.8845,2.8859,2.8885,2.8902,2.8899,2.8908,2.8905,2.8908,2.8861,2.885,2.8909,2.8909,2.8909,2.8909,2.8909,2.8909,2.8621,2.866,2.8666,2.8713,2.8725,2.8758,2.8771,2.8788,2.8803,2.8841,2.8864,2.8873,2.8889,2.8916,2.894,2.8943,2.8951,2.8961,2.8962,2.8917,2.8911,2.8906,2.8896,2.8963,2.8963,2.9007,2.9007,2.9007]},{"header":{"parameterUnit":"m.s-1","parameterCategory":1,"la1":30.2991,"la2":30.254,"lo1":-89.0895,"lo2":-89.0444,"dy":0.0017,"dx":0.0017,"nx":28,"ny":28,"refTime":"2024-03-18T09:00:00:Z","depth":0,"parameterNumber":3,"parameterNumberName":"V-component_of_WINDS"},"data":[0,0,0,0,0,0,0,0,0,0,0,0,0,0,0,0,0,0,0,0,0,0,0,0,0,0,0,0,0,0,0,0,0,0,0,0,0,0,0,0,0,0,0,0,0,0,0,0,0,0,0,0,0,0,0,0,0,0,1.902,1.902,0,1.9004,1.9003,1.9003,1.8972,1.8972,1.8971,1.897,1.8952,1.8952,1.8952,0,0,0,0,0,0,0,0,0,0,0,0,0,1.9022,1.9023,1.902,1.902,1.902,1.9004,1.9003,1.9003,1.8972,1.8971,1.8971,1.897,1.8952,1.8952,1.8952,0,0,0,0,0,0,0,0,0,0,0,0,0,1.9015,1.9023,1.902,1.9002,1.9001,1.9004,1.9003,1.9003,1.8972,1.8971,1.8971,1.897,1.8952,1.8952,1.8952,1.8971,0,0,1.8952,1.8952,0,0,0,0,0,0,0,0,1.9016,1.9015,1.9005,1.9004,1.9002,1.8989,1.8997,1.8992,1.8973,1.8983,1.897,1.8969,1.8965,1.8964,1.8963,1.897,1.8969,1.8952,1.8952,1.8952,1.8952,0,0,0,0,0,0,0,1.9016,1.9016,1.9014,1.9005,1.9003,1.8994,1.8992,1.8996,1.8979,1.8982,1.898,1.8978,1.8964,1.8963,1.8962,1.8969,1.8952,1.8952,1.8952,1.8953,1.8988,1.8988,0,0,0,0,0,0,1.902,1.9016,1.9014,1.9013,1.9007,1.8995,1.8993,1.8994,1.8979,1.8976,1.8979,1.8977,1.8963,1.8962,1.8961,1.898,1.8952,1.8953,1.8953,1.8987,1.8988,1.8989,0,0,0,0,0,0,1.902,1.902,1.9015,1.9014,1.9013,1.8996,1.8998,1.8994,1.8993,1.8977,1.8973,1.8981,1.8962,1.8961,1.8968,1.8979,1.8953,1.8953,1.8986,1.8987,1.8988,1.902,0,0,0,0,0,0,1.902,1.902,1.9028,1.9015,1.9013,1.9023,1.8998,1.8994,1.8993,1.899,1.8978,1.8975,1.8961,1.8968,1.8968,1.8979,1.8953,1.8985,1.8986,1.8988,1.9018,1.9022,1.9026,0,0,0,0,0,1.902,1.9037,1.9028,1.9028,1.9022,1.9024,1.9023,1.9007,1.8995,1.9001,1.8991,1.8975,1.8978,1.8969,1.8969,1.898,1.8984,1.8986,1.8988,1.9016,1.9021,1.9026,0,0,0,0,0,0,1.9052,1.9035,1.9025,1.9039,1.9033,1.9019,1.9027,1.9014,1.9011,1.9008,1.8988,1.8986,1.8995,1.8988,1.8978,1.8996,1.8978,1.898,1.9,1.9005,1.9009,1.901,1.8953,0,0,0,0,0,1.9061,1.9064,1.9049,1.9063,1.906,1.9044,1.9044,1.9032,1.9025,1.9023,1.9012,1.9006,1.9004,1.9004,1.9003,1.9017,1.9012,1.9024,1.9028,1.9031,1.9033,1.9037,1.9042,1.8995,1.8995,1.8995,0,0,1.9079,1.907,1.9073,1.9069,1.9063,1.9065,1.9042,1.9047,1.9048,1.9023,1.9029,1.9021,1.9012,1.9022,1.9025,1.9016,1.9045,1.9034,1.9037,1.9036,1.904,1.9044,1.9048,1.8996,1.8996,1.8996,0,0,1.9113,1.9107,1.9117,1.9111,1.9102,1.9091,1.9094,1.9081,1.9075,1.908,1.9061,1.9062,1.9061,1.9055,1.9051,1.9081,1.9066,1.9081,1.9102,1.9106,1.911,1.9113,1.9122,1.9126,1.9083,1.9083,1.9083,0,1.9136,1.914,1.9123,1.9128,1.9126,1.9104,1.9112,1.9108,1.9099,1.9097,1.9087,1.9084,1.9077,1.9084,1.9091,1.9089,1.909,1.9082,1.9111,1.9114,1.9117,1.9125,1.9128,1.9085,1.9084,1.9084,1.9084,0,1.9168,1.9171,1.918,1.9171,1.917,1.9177,1.916,1.9161,1.9149,1.9138,1.9143,1.9133,1.9128,1.9129,1.9117,1.9133,1.9128,1.9115,1.9097,1.9123,1.913,1.9133,1.9087,1.9087,1.9086,1.9086,0,0,1.9222,1.9204,1.9207,1.9202,1.919,1.9191,1.9196,1.9192,1.9192,1.9186,1.9188,1.9187,1.9175,1.9171,1.9158,1.9163,1.9184,1.9149,1.9148,1.9154,1.9199,1.9208,1.9212,1.9175,1.9175,1.9176,1.9199,0,1.9252,1.926,1.9245,1.9256,1.9257,1.9236,1.924,1.9232,1.9222,1.9221,1.9209,1.9208,1.9193,1.919,1.9193,1.9181,1.9193,1.9179,1.9175,1.9175,1.9177,1.9216,1.9226,1.9249,1.9202,1.9203,1.9203,0,1.9289,1.9284,1.9296,1.9281,1.9281,1.9285,1.9279,1.9278,1.9268,1.9261,1.9256,1.9241,1.9243,1.9226,1.9228,1.9219,1.9216,1.921,1.921,1.9209,1.919,1.9214,1.9256,1.9259,1.9208,1.9207,1.9207,0,1.9325,1.9322,1.9328,1.9325,1.9308,1.9311,1.9305,1.9294,1.9291,1.9285,1.9283,1.9277,1.9274,1.9269,1.9252,1.9242,1.9255,1.9238,1.9248,1.9248,1.9251,1.9251,1.9292,1.9251,1.9251,1.9251,1.9251,0,1.9359,1.9367,1.9344,1.9347,1.9354,1.9336,1.9343,1.9334,1.9324,1.9324,1.9305,1.9306,1.9284,1.9282,1.9269,1.9271,1.927,1.9263,1.9259,1.9264,1.9264,1.9261,1.9258,1.9252,1.9252,1.9252,1.9252,0,1.9401,1.9386,1.9391,1.9375,1.9371,1.9376,1.9362,1.9364,1.9352,1.9353,1.9352,1.9333,1.9329,1.9312,1.9304,1.9295,1.9301,1.9295,1.9305,1.9302,1.9312,1.9311,1.9352,1.9356,1.9314,1.9315,1.9315,0,1.9423,1.9429,1.9413,1.9412,1.9406,1.9405,1.9402,1.9383,1.9381,1.9369,1.9372,1.9366,1.9361,1.9355,1.934,1.9334,1.9326,1.9341,1.9325,1.9329,1.9324,1.9323,1.9323,1.9344,1.9344,1.9345,1.9345,0,1.9464,1.9456,1.9453,1.9447,1.9444,1.9439,1.9432,1.9432,1.9411,1.9409,1.9404,1.94,1.9392,1.9386,1.9376,1.9368,1.9352,1.935,1.9352,1.9356,1.9361,1.9357,1.9313,1.9349,1.9349,1.9349,1.9348,1.9348,1.9496,1.9499,1.9488,1.9484,1.9477,1.9471,1.9471,1.9459,1.9456,1.9447,1.9436,1.9433,1.9421,1.9407,1.9399,1.9395,1.9387,1.939,1.939,1.9391,1.9393,1.9363,1.9394,1.9394,1.9393,1.9393,1.9393,0,1.9535,1.9526,1.9523,1.9514,1.9511,1.9497,1.9488,1.9486,1.9484,1.9474,1.9469,1.9463,1.9457,1.9441,1.9433,1.9433,1.9425,1.9431,1.943,1.9428,1.9402,1.94,1.9437,1.9437,1.9437,1.9437,1.9437,1.9437,1.9554,1.9558,1.9548,1.9547,1.9538,1.9535,1.9531,1.9524,1.9516,1.9511,1.9505,1.9495,1.9483,1.9473,1.9466,1.9461,1.9459,1.9467,1.9459,1.9435,1.943,1.9426,1.9425,1.9466,1.9466,1.9486,1.9486,1.9486]}]]